Regional Weather Roundup
Issued by NWS

Home | Current Version | Previous Version | Text Only | Print | Product List | Glossary On
Versions: 1 2 3 4 5 6 7 8 9 10 11 12 13 14 15 16 17 18 19 20 21 22 23 24 25 26 27 28
000
ASUS42 KTBW 242117
RWRFL
FLORIDA REGIONAL WEATHER ROUNDUP
NATIONAL WEATHER SERVICE TAMPA BAY RUSKIN FL
500 PM EDT SAT JUN 24 2017

NOTE: "FAIR" INDICATES FEW OR NO CLOUDS BELOW 12,000 FEET WITH NO
SIGNIFICANT WEATHER AND/OR OBSTRUCTIONS TO VISIBILITY.

FLZ001>010-012>015-112-114-115-242200-
PANHANDLE FLORIDA

CITY           SKY/WX    TMP DP  RH WIND       PRES   REMARKS
PENSACOLA      PTSUNNY   86  77  74 SE8       30.01F HX  97
PENSACOLA NAS  PTSUNNY   84  76  76 SW16      30.01F
MILTON NAS     MOSUNNY   90  73  57 NW7       30.01F HX  98
CRESTVIEW      MOSUNNY   89  72  56 VRB3      30.03F HX  96
DUKE FIELD     LGT RAIN  81  75  83 SW10      30.01F
VALPARAISO     MOSUNNY   86  76  74 SW14      30.02F HX  96
MARY ESTHER    MOSUNNY   84  75  72 SW5       30.01F
PANAMA CITY    PTSUNNY   86  75  69 S10       30.02F HX  95
TYNDALL AFB    MOSUNNY   85  76  74 SW10      30.04F HX  95
APALACHICOLA   SUNNY     87  77  72 SW14      30.04F HX  99

STATION/POSITION SKY/WX   TEMP    WIND        PRES    WAVE   SWELL
                          AIR SEA DIR/SP/G            HT/PER HT/PER
                          (F)     (DEG/KT/KT) (MB)    (FT/S) (FT/S)
30.1N   87.6W              82 83  260/ 10/ 12 1016.4F   2/ 6   2/ 6
29.2N   88.2W              83 84  240/  2/  4 1017.0
28.8N   86.0W              82 84  180/  6/  8 1017.1F   2/ 6   2/ 6
PANAMA CITY BEAC           82 84  240/  9/ 10 1017.8F
TOWER C                    82     230/  7/  9 1018.2F
28.5N   84.5W              83 85  170/  4/  6 1017.6F   2/ 6   2/ 6

$$
FLZ011-016>038-118-127-128-134-139-239-242200-
NORTH FLORIDA

CITY           SKY/WX    TMP DP  RH WIND       PRES   REMARKS
MARIANNA       PTSUNNY   90  76  63 NW9       30.00F HX 101
TALLAHASSEE    PTSUNNY   90  76  63 S10       30.01F HX 101
PERRY          MOSUNNY   88  73  61 SW10G17   30.06S HX  95
CROSS CITY     MOSUNNY   91  72  52 W13       30.05S HX  98
LAKE CITY      FAIR      90  70  51 SW9       30.03F HX  95
GAINESVILLE    MOSUNNY   92  71  50 W12       30.02F HX  98
WILLISTON      SUNNY     95  73  49 E12       30.04S HX 105
PALATKA        FAIR      93  73  52 NW3       30.01F HX 102
MAYPORT NAS    SUNNY     87  76  69 SE16G23   30.02F HX  97
JACKSONVILLE   MOSUNNY   94  72  48 SW12      30.00F HX 102
JAX NAS        MOSUNNY   97  70  41 W12       30.01F HX 103
FERNANDINA BEA FAIR      88  77  70 SE17      30.01S HX 100
ST AUGUSTINE   SUNNY     87  76  69 SE18      30.03F HX  97
PALM COAST     MOSUNNY   90  73  58 SE13      30.02F HX  98

STATION/POSITION SKY/WX   TEMP    WIND        PRES    WAVE   SWELL
                          AIR SEA DIR/SP/G            HT/PER HT/PER
                          (F)     (DEG/KT/KT) (MB)    (FT/S) (FT/S)
SHELL POINT      NOT AVBL
KEATON BEACH               83     220/  9/ 11 1017.7R
CEDAR KEY                  85     270/  7/  9 1018.2F
FERNANDINA                 88 86  140/ 11/ 15 1017.0F
30.7N   81.3W                 82                N/A     3/ 8
MAYPORT                    85 84  150/  9/ 14 1016.9F
31.4N   80.9W              82 83  160/ 16/ 17 1015.8F   3/ 8   2/ 8
ST AUGUSTINE               80 81  160/ 13/ 14 1016.9F

$$
FLZ040-043>046-052-053-057-058-063-144-242200-
INTERIOR CENTRAL FLORIDA

CITY           SKY/WX    TMP DP  RH WIND       PRES   REMARKS
OCALA          PTSUNNY   87  75  67 SW14      30.04F HX  96
THE VILLAGES     N/A     93  75  55 S10       29.93F HX 104
LEESBURG       SUNNY     92  73  53 SW3       30.04F HX 100
SANFORD        SUNNY     95  68  41 S10       30.02F HX  99
ORLANDO EXEC   SUNNY     93  69  45 S7        30.03F HX  98
ORLANDO INTL   PTSUNNY   92  71  50 S7        30.02F HX  98
KISSIMMEE      MOSUNNY   93  72  50 SE9       30.03F HX 101
WINTER HAVEN   SUNNY     94  65  38 W5        30.04F HX  96
LAKELAND       MOSUNNY   93  70  46 S7        30.03F HX  99
BARTOW         PTSUNNY   93  66  40 SW7       30.03F HX  96
SEBRING        CLOUDY    90  73  56 S8        30.04F HX  98

$$
FLZ041-047-054-059-064-141-147-242200-
EAST CENTRAL FLORIDA

CITY           SKY/WX    TMP DP  RH WIND       PRES   REMARKS
DAYTONA BEACH  MOSUNNY   90  74  59 E12G20    30.03S HX  99
DELAND         MOSUNNY   95  68  41 SW5       30.02S HX  99
NEW SMYRNA BEA MOSUNNY   90  72  55 E14       30.04F HX  96
JFK SPACE CTR  MOSUNNY   90  73  58 S13       30.03F HX  98
TITUSVILLE     MOSUNNY   91  72  52 SE16      30.05F HX  98
CAPE CANAVERAL MOSUNNY   89  77  66 SE16      30.03F HX 102
MELBOURNE      SUNNY     89  76  65 SE16G23   30.04F HX 100
VERO BEACH     CLOUDY    85  76  74 SE14      30.06F
FT PIERCE      CLOUDY    86  75  69 SE15      30.05F HX  95
STUART         MOSUNNY   91  75  59 E16G23    30.07  HX 102

STATION/POSITION SKY/WX   TEMP    WIND        PRES    WAVE   SWELL
                          AIR SEA DIR/SP/G            HT/PER HT/PER
                          (F)     (DEG/KT/KT) (MB)    (FT/S) (FT/S)
28.5N   80.2W              83 82  150/ 12/ 14 1019.1
28.9N   78.5W              82     170/  8/ 12 1018.9F   4/ 8   3/ 8
TRIDENT PIER               85 83  120/  9/ 13 1019.4F
28.4N   80.5W                 80                N/A     2/ 5
27.5N   80.2W                 80                N/A     2/ 8

$$
FLZ050-056-061-142-242-148-248-149-249-151-251-155-255-
160-260-242200-
WEST CENTRAL FLORIDA

CITY           SKY/WX    TMP DP  RH WIND       PRES   REMARKS
CRYSTAL RIVER  FAIR      88  73  62 W8        30.05S HX  96
INVERNESS      CLOUDY    88  77  70 CALM      30.04F HX 100
BROOKSVILLE    MOSUNNY   90  75  61 W10       30.05F HX 100
CLEARWATER AIR PTSUNNY   88  72  58 W8        30.05S
ST PETE CLEARW MOSUNNY   89  73  59 SW9       30.05F HX  97
TAMPA INTL     MOSUNNY   88  74  63 W10       30.05F HX  96
TAMPA EXEC     MOSUNNY   93  75  55 W5        30.04S HX 104
PLANT CITY     MOSUNNY   95  73  49 MISG      30.05F HX 105
MACDILL AFB    MOSUNNY   90  80  71 SW10      30.04F HX 107
PETER O KNIGHT CLOUDY    91  79  66 W6        30.04F HX 107
ST PETERSBURG  MOSUNNY   87  74  64 NW10      30.03F HX  95
SARASOTA       MOSUNNY   86  75  69 W9        30.03F HX  95
VENICE         FAIR      88  77  70 W9        30.05F HX 100

STATION/POSITION SKY/WX   TEMP    WIND        PRES    WAVE   SWELL
                          AIR SEA DIR/SP/G            HT/PER HT/PER
                          (F)     (DEG/KT/KT) (MB)    (FT/S) (FT/S)
27.3N   84.2W                 83                N/A     2/ 7
CLEARWATER BEACH           84 86  210/  9/ 10 1018.0F
MIDDLE TAMPA BAY           84     280/  9/ 10 1017.8F
VENICE                     85 88  230/  9/ 10 1017.9F

$$
FLZ066-069-070-075>078-162-262-165-265-242200-
SOUTHWEST FLORIDA AND KEYS

CITY           SKY/WX    TMP DP  RH WIND       PRES   REMARKS
PUNTA GORDA    CLOUDY    91  72  53 SW13      30.04F HX  98
FT MYERS       LGT RAIN  84  77  79 NW9       30.02F
SOUTHWEST INTL CLOUDY    86  74  67 SW7       30.03F
NAPLES         MOSUNNY   88  75  65 SW14      30.02F HX  97
MARCO ISLAND   PTSUNNY   91  75  59 S12       30.03F HX 102
IMMOKALEE      PTSUNNY   91  72  52 SE10      30.04S HX  98
MARATHON       MOSUNNY   88  78  72 E8G16     30.03F HX 101
KEY WEST NAS   PTSUNNY   88  78  72 E15       30.03F HX 101
KEY WEST INTL  MOSUNNY   87  76  69 E12       30.03F HX  97

STATION/POSITION SKY/WX   TEMP    WIND        PRES    WAVE   SWELL
                          AIR SEA DIR/SP/G            HT/PER HT/PER
                          (F)     (DEG/KT/KT) (MB)    (FT/S) (FT/S)
NAPLES                        89  210/ 12/ 13 1016.8F
DRY TORTUGAS               84     120/ 13/ 15 1016.8F
SAND KEY                   83     120/ 12/ 13 1017.3F
LONG KEY                   84 87  120/ 10/ 12 1017.0
MOLASSES REEF              83 84  120/ 12/ 13 1018.1F

$$
FLZ067-068-071>074-168-172>174-242200-
SOUTHEAST FLORIDA

CITY           SKY/WX    TMP DP  RH WIND       PRES   REMARKS
W PALM BEACH   PTSUNNY   88  72  58 SE14      30.06F
BOCA RATON     MOSUNNY   88  75  66 SE9       30.06F HX  97
FT LAUDER-EXEC SUNNY     85  71  63 E14       30.05F
FT LAUDERDALE  PTSUNNY   87  75  67 SE13G20   30.05F HX  96
POMPANO BEACH  MOSUNNY   89  74  60 SE13      30.06F HX  98
PEMBROKE PINES SUNNY     89  72  56 SE13      30.07F HX  96
OPA LOCKA      MOSUNNY   88  74  63 SE14G21   30.05F HX  96
MIAMI          MOSUNNY   89  71  55 SE15      30.05F HX  95
WEST KENDALL   MOSUNNY   88  73  61 E13       30.05F HX  95
HOMESTEAD      SUNNY     88  77  69 E10       30.04F HX 100

STATION/POSITION SKY/WX   TEMP    WIND        PRES    WAVE   SWELL
                          AIR SEA DIR/SP/G            HT/PER HT/PER
                          (F)     (DEG/KT/KT) (MB)    (FT/S) (FT/S)
PORT EVERGLADES            86     130/  6/  9 1018.0F
VIRGINIA KEY               84 87  100/  8/ 12 1017.4F
LAKE WORTH                 83 83  140/ 11/ 12 1018.9F
FOWEY ROCKS                83 84  110/  9/ 11 1018.8F
SETTLEMENT POINT           84     170/  8/  9 1018.5F

$$





USA.gov is the U.S. government's official web portal to all federal, state and local government web resources and services.